Meteo pe oră la Al Mahwit

Astăzi, 22 Ianuarie, Vineri

Timp Temperatura Precipitaţii Vânt Presiune Umiditate
00:00 +20°C° 0 mm 1 m/s 659 mmHg 68%
01:00 +20°C° 0 mm 1 m/s 659 mmHg 65%
02:00 +20°C° 0 mm 1 m/s 659 mmHg 63%
03:00 +20°C° 0 mm 1 m/s 659 mmHg 60%
04:00 +19°C° 0 mm 1 m/s 659 mmHg 59%
05:00 +19°C° 0 mm 1 m/s 659 mmHg 59%
06:00 +18°C° 0 mm 1 m/s 659 mmHg 58%
07:00 +19°C° 0 mm 1 m/s 659 mmHg 52%
08:00 +21°C° 0 mm 1 m/s 660 mmHg 47%
09:00 +22°C° 0 mm 1 m/s 660 mmHg 41%
10:00 +23°C° 0 mm 1 m/s 660 mmHg 38%
11:00 +24°C° 0 mm 2 m/s 660 mmHg 36%
12:00 +25°C° 0 mm 2 m/s 660 mmHg 33%
13:00 +25°C° 0 mm 2 m/s 659 mmHg 34%
14:00 +26°C° 0 mm 3 m/s 658 mmHg 34%
15:00 +26°C° 0 mm 3 m/s 658 mmHg 35%
16:00 +25°C° 0 mm 3 m/s 658 mmHg 40%
17:00 +24°C° 0 mm 2 m/s 658 mmHg 46%
18:00 +23°C° 0 mm 2 m/s 658 mmHg 51%
19:00 +23°C° 0 mm 2 m/s 658 mmHg 55%
20:00 +22°C° 0 mm 1 m/s 659 mmHg 58%
21:00 +22°C° 0 mm 1 m/s 659 mmHg 62%
22:00 +21°C° 0 mm 1 m/s 659 mmHg 62%
23:00 +21°C° 0 mm 1 m/s 658 mmHg 61%

Mâine, 23 Ianuarie, Sâmbătă

Timp Temperatura Precipitaţii Vânt Presiune Umiditate
00:00 +21°C° 0 mm 1 m/s 658 mmHg 61%
01:00 +20°C° 0 mm 1 m/s 658 mmHg 61%
02:00 +18°C° 0 mm 0 m/s 658 mmHg 61%
03:00 +18°C° 0 mm 0 m/s 657 mmHg 61%
04:00 +17°C° 0 mm 0 m/s 657 mmHg 59%
05:00 +17°C° 0 mm 0 m/s 658 mmHg 58%
06:00 +17°C° 0 mm 0 m/s 658 mmHg 56%
07:00 +18°C° 0 mm 0 m/s 658 mmHg 50%
08:00 +21°C° 0 mm 1 m/s 659 mmHg 45%
09:00 +23°C° 0 mm 1 m/s 660 mmHg 39%
10:00 +23°C° 0 mm 1 m/s 659 mmHg 39%
11:00 +24°C° 0 mm 2 m/s 659 mmHg 39%
12:00 +25°C° 0 mm 2 m/s 659 mmHg 39%
13:00 +25°C° 0 mm 3 m/s 658 mmHg 40%
14:00 +25°C° 0 mm 3 m/s 658 mmHg 41%
15:00 +26°C° 0 mm 3 m/s 657 mmHg 42%
16:00 +25°C° 0 mm 3 m/s 657 mmHg 45%
17:00 +24°C° 0 mm 3 m/s 657 mmHg 48%
18:00 +24°C° 0 mm 2 m/s 657 mmHg 52%
19:00 +23°C° 0 mm 2 m/s 658 mmHg 56%
20:00 +22°C° 0 mm 1 m/s 658 mmHg 59%
21:00 +22°C° 0 mm 1 m/s 659 mmHg 63%
22:00 +21°C° 0 mm 1 m/s 658 mmHg 64%
23:00 +21°C° 0 mm 1 m/s 658 mmHg 65%

Poimâine, 24 Ianuarie, Duminică

Timp Temperatura Precipitaţii Vânt Presiune Umiditate
00:00 +19°C° 0 mm 0 m/s 658 mmHg 66%
01:00 +18°C° 0 mm 0 m/s 658 mmHg 66%
02:00 +18°C° 0 mm 0 m/s 657 mmHg 66%
03:00 +18°C° 0 mm 0 m/s 657 mmHg 66%
04:00 +18°C° 0 mm 0 m/s 657 mmHg 66%
05:00 +17°C° 0 mm 0 m/s 657 mmHg 67%
06:00 +17°C° 0 mm 0 m/s 657 mmHg 68%
07:00 +18°C° 0 mm 0 m/s 658 mmHg 62%
08:00 +21°C° 0 mm 1 m/s 658 mmHg 57%
09:00 +22°C° 0 mm 1 m/s 659 mmHg 51%
10:00 +23°C° 0 mm 1 m/s 659 mmHg 50%
11:00 +24°C° 0 mm 2 m/s 659 mmHg 49%
12:00 +25°C° 0 mm 3 m/s 658 mmHg 48%
13:00 +25°C° 0 mm 3 m/s 658 mmHg 48%
14:00 +25°C° 0 mm 3 m/s 658 mmHg 48%
15:00 +25°C° 0 mm 3 m/s 657 mmHg 49%
16:00 +25°C° 0 mm 3 m/s 657 mmHg 52%
17:00 +24°C° 0 mm 3 m/s 657 mmHg 55%
18:00 +23°C° 0 mm 2 m/s 658 mmHg 59%
19:00 +23°C° 0 mm 2 m/s 658 mmHg 61%
20:00 +22°C° 0 mm 1 m/s 658 mmHg 64%
21:00 +22°C° 0 mm 1 m/s 659 mmHg 67%
22:00 +21°C° 0 mm 1 m/s 659 mmHg 66%
23:00 +21°C° 0 mm 1 m/s 658 mmHg 65%

25 Ianuarie, Luni

Timp Temperatura Precipitaţii Vânt Presiune Umiditate
00:00 +21°C° 0 mm 1 m/s 658 mmHg 64%
01:00 +21°C° 0 mm 1 m/s 658 mmHg 65%
02:00 +18°C° 0 mm 0 m/s 658 mmHg 66%
03:00 +18°C° 0 mm 0 m/s 658 mmHg 67%
04:00 +18°C° 0 mm 0 m/s 658 mmHg 67%
05:00 +17°C° 0 mm 0 m/s 658 mmHg 67%
06:00 +17°C° 0 mm 0 m/s 658 mmHg 67%
07:00 +18°C° 0 mm 0 m/s 658 mmHg 64%
08:00 +21°C° 0 mm 1 m/s 659 mmHg 60%
09:00 +22°C° 0 mm 1 m/s 659 mmHg 57%
10:00 +23°C° 0 mm 2 m/s 659 mmHg 56%
11:00 +23°C° 0 mm 2 m/s 659 mmHg 55%
12:00 +24°C° 0 mm 3 m/s 659 mmHg 54%
13:00 +24°C° 0 mm 3 m/s 659 mmHg 53%
14:00 +25°C° 0 mm 3 m/s 658 mmHg 53%
15:00 +25°C° 0 mm 3 m/s 658 mmHg 52%
16:00 +24°C° 0 mm 3 m/s 658 mmHg 56%
17:00 +24°C° 0 mm 2 m/s 658 mmHg 60%
18:00 +23°C° 0 mm 2 m/s 658 mmHg 63%
19:00 +23°C° 0 mm 2 m/s 658 mmHg 65%
20:00 +22°C° 0 mm 1 m/s 659 mmHg 66%
21:00 +21°C° 0 mm 1 m/s 659 mmHg 68%
22:00 +21°C° 0 mm 1 m/s 659 mmHg 68%
23:00 +21°C° 0 mm 1 m/s 659 mmHg 68%

26 Ianuarie, Marţi

Timp Temperatura Precipitaţii Vânt Presiune Umiditate
00:00 +20°C° 0 mm 1 m/s 659 mmHg 68%
01:00 +20°C° 0 mm 1 m/s 658 mmHg 68%
02:00 +20°C° 0 mm 1 m/s 658 mmHg 69%
03:00 +17°C° 0 mm 0 m/s 658 mmHg 69%
04:00 +17°C° 0 mm 0 m/s 658 mmHg 68%
05:00 +17°C° 0 mm 0 m/s 658 mmHg 67%
06:00 +17°C° 0 mm 0 m/s 658 mmHg 66%
07:00 +20°C° 0 mm 1 m/s 659 mmHg 61%
08:00 +21°C° 0 mm 1 m/s 659 mmHg 56%
09:00 +22°C° 0 mm 1 m/s 660 mmHg 51%
10:00 +23°C° 0 mm 2 m/s 660 mmHg 51%
11:00 +24°C° 0 mm 2 m/s 659 mmHg 50%
12:00 +25°C° 0 mm 3 m/s 659 mmHg 50%
13:00 +25°C° 0 mm 3 m/s 659 mmHg 51%
14:00 +25°C° 0 mm 3 m/s 658 mmHg 53%
15:00 +25°C° 0 mm 3 m/s 658 mmHg 55%
16:00 +24°C° 0 mm 3 m/s 658 mmHg 58%
17:00 +23°C° 0 mm 2 m/s 658 mmHg 61%
18:00 +23°C° 0 mm 2 m/s 658 mmHg 64%
19:00 +21°C° 0 mm 2 m/s 658 mmHg 66%
20:00 +22°C° 0 mm 1 m/s 658 mmHg 67%
21:00 +21°C° 0 mm 1 m/s 659 mmHg 69%
22:00 +21°C° 0 mm 1 m/s 659 mmHg 67%
23:00 +21°C° 0 mm 1 m/s 658 mmHg 65%

27 Ianuarie, Miercuri

Timp Temperatura Precipitaţii Vânt Presiune Umiditate
00:00 +21°C° 0 mm 1 m/s 658 mmHg 63%
01:00 +20°C° 0 mm 1 m/s 658 mmHg 62%
02:00 +20°C° 0 mm 1 m/s 658 mmHg 60%
03:00 +18°C° 0 mm 0 m/s 657 mmHg 58%
04:00 +17°C° 0 mm 0 m/s 657 mmHg 58%
05:00 +17°C° 0 mm 0 m/s 658 mmHg 57%
06:00 +17°C° 0 mm 0 m/s 658 mmHg 57%
07:00 +18°C° 0 mm 0 m/s 658 mmHg 50%
08:00 +19°C° 0 mm 0 m/s 659 mmHg 44%
09:00 +23°C° 0 mm 1 m/s 660 mmHg 37%
10:00 +24°C° 0 mm 1 m/s 659 mmHg 36%
11:00 +25°C° 0 mm 2 m/s 659 mmHg 36%
12:00 +26°C° 0 mm 3 m/s 659 mmHg 35%
13:00 +26°C° 0 mm 3 m/s 658 mmHg 37%
14:00 +26°C° 0 mm 3 m/s 658 mmHg 39%
15:00 +26°C° 0 mm 3 m/s 657 mmHg 41%
16:00 +25°C° 0 mm 3 m/s 657 mmHg 45%
17:00 +24°C° 0 mm 3 m/s 657 mmHg 49%
18:00 +24°C° 0 mm 2 m/s 657 mmHg 53%
19:00 +23°C° 0 mm 2 m/s 658 mmHg 55%
20:00 +23°C° 0 mm 1 m/s 658 mmHg 56%
21:00 +22°C° 0 mm 1 m/s 658 mmHg 58%
22:00 +22°C° 0 mm 1 m/s 658 mmHg 57%
23:00 +22°C° 0 mm 1 m/s 658 mmHg 57%
Arată mai mult

Formular de consimțământ

Meteoprog și furnizorii noștri de servicii pot stoca și accesa date personale, precum cookies, identificatori de dispozitiv sau alte tehnologii similare pe dispozitivul dumneavoastră și procesa astfel de date pentru a personaliza conținutul și reclamele, dar și pentru a oferi caracteristici de social media și pentru a analiza traficul.

  • Stocarea și/sau accesarea informațiilor pe dispozitivul dumneavoastră

    Cookies, identificatori de dispozitiv sau alte informații pot fi stocate sau accesate pe dispozitiv în scopurile indicate mai sus.

  • Reclame și conținut personalizat, evaluarea reclamelor și a conținutului, informații despre audiențe și dezvoltarea produselor

    Reclamele și conținutul pot fi personalizate pe baza unui profil. Pot fi adăugate date suplimentare pentru a personaliza mai bine reclamele și conținutul. Performanța reclamelor și conținutului poate fi măsurată. Pot fi obținute informații despre utilizatorii care au văzut reclamele și conținutul. Aceste date pot fi utilizate pentru a dezvolta sau îmbunătăți experiența utilizatorilor, sistemele și software-ul.

Dând clic pe ‘Sunt de acord’, permiteți utilizarea cookie-urilor menționate, a identificatorilor de dispozitiv, balizelor web sau altor tehnologii similare. Setările pot fi modificate din browser-ul dispozitivului dumneavoastră.

În anumite scopuri, interesele legitime pot prima asupra consimțământului. Puteți citi mai multe informații în acest sens în Politica privind Confidențialitatea Datelor și Cookie.